Starlink 32805

operational
NORAD ID: 62740 Int'l Des: 2025-014 Owner: SPXS Country: US Constellation: starlink
LEOCIRCULAR

Über Starlink 32805

Beschreibung wird geladen...

Live-Position

3D-Globus wird geladen...

Nächste Überflüge

Höhenverlauf

Altitude vs Time

uPlot chart will show altitude changes over time

Zweizeiliger Elementsatz

1 62740U 25014F 25307.56382575 .00041149 00000-0 14958-2 0 9997
2 62740 42.9991 147.0629 0001216 244.1371 115.9356 15.27596368 43960
Epoch: 3. Nov. 2025 • Age: 14 hours

Aktueller Status

Höhe 483.9 km
Geschwindigkeit 7.63 km/s
Subsatellitenpunkt 28.39°N, 77.55°E
Startdatum 21. Jan. 2025
Alter 0.7 years
Typ internet

Technische Details

Klassifizierung Payload
Masse 730.00 kg
Trockenmasse 700.00 kg
Gesamtmasse 730.00 kg
Länge 0.30 m
Durchmesser 4.10 m
Spannweite 29.00 m
Form Box + pan
Hersteller SPXS
Bus-Typ Starlink V2M
Phasenstatus In Orbit
Besitzer/Staat SPXS/US

Große Konstellationen

Loading constellations...